RH
19 17 15 14 13 12 12 11 11 11 11 10 10 9 9 9 9 9 9 8 8 8 8 7 8 10 14 16 22 28 30 27 24 19 18 19 26 30 23 30 38 34 31 36 36 41 39
16 16 15 14 13 12 12 11 11 11 10 10 10 10 10 10 10 9 9 10 10 10 8 7 9 11 16 18 25 27 30 30 27 20 19 21 24 24 31 29 31 37 41 38 41 37 41
17 15 14 14 13 12 11 11 11 10 10 10 9 9 8 8 8 8 8 7 9 11 11 9 9 13 19 23 28 31 32 29 24 24 24 25 26 34 43 38 53 51 37 29 33 37 35
14 14 14 14 14 13 12 12 11 10 9 8 6 4 4 3 3 3 4 6 8 10 11 10 15 19 24 25 26 31 30 30 27 27 30 33 34 35 43 52 39 35 38 24 30 42 42
18 14 14 15 14 13 12 12 10 8 5 4 4 3 3 2 2 1 1 2 6 10 13 21 22 21 37 38 39 36 36 34 33 35 38 41 43 54 52 33 24 30 21 26 22 36 38
17 16 16 15 14 12 12 10 7 5 4 3 3 2 2 2 1 1 2 5 9 15 19 21 17 21 30 39 35 37 36 37 39 41 42 58 55 37 39 28 20 17 21 25 27 28 37
22 20 17 15 13 12 11 9 5 3 3 2 2 2 2 2 2 3 7 8 12 16 16 23 32 24 24 36 38 44 44 45 43 41 29 51 32 24 22 29 28 24 26 26 23 24 30
17 16 16 14 13 11 9 6 4 3 2 2 2 2 3 3 3 7 5 10 18 20 31 42 41 41 37 39 39 40 43 42 38 32 44 35 28 29 38 39 40 38 34 29 27 31 37
17 15 15 14 13 9 6 4 3 2 2 2 3 4 4 4 6 5 11 16 23 30 31 40 40 40 40 38 42 42 44 45 38 39 38 28 25 39 38 36 38 32 31 22 26 30 32
22 17 16 14 10 6 4 3 2 2 3 4 5 6 6 6 10 8 15 20 28 39 25 30 39 42 42 38 42 46 47 50 45 40 42 37 42 41 40 35 30 23 23 29 36 34 29
22 17 12 9 6 4 3 2 2 3 4 6 7 7 7 8 8 11 19 24 39 27 56 23 40 39 30 42 47 47 51 52 43 40 42 26 35 40 39 28 29 21 34 35 36 34 37
22 14 12 6 4 2 2 2 3 4 6 7 7 6 7 9 10 7 14 29 39 41 61 32 38 36 26 31 41 49 53 52 54 50 48 41 48 42 32 32 34 34 35 39 45 40 58
12 10 7 4 3 2 2 3 4 5 6 6 6 6 9 10 12 7 16 37 32 46 28 38 42 40 38 32 35 42 49 49 50 60 35 34 32 41 45 41 40 39 38 46 39 65 31
7 6 4 3 2 2 2 4 5 6 6 6 5 7 10 12 12 13 26 20 30 26 38 47 46 38 26 37 29 25 40 47 51 56 53 56 40 37 42 40 41 41 40 38 29 23 17
7 5 4 3 2 2 3 4 5 6 5 4 4 8 14 13 14 19 24 34 36 39 53 52 38 25 24 37 34 25 44 57 54 52 65 63 43 39 35 36 35 38 45 35 44 33 44
6 5 4 3 2 2 4 5 5 5 4 3 3 11 18 16 17 21 24 33 56 57 55 48 31 42 32 46 32 32 33 52 54 50 56 63 65 44 44 35 37 37 36 46 41 57 47
6 5 3 2 3 3 4 5 5 4 3 2 5 18 19 15 18 20 28 52 64 56 61 52 48 48 58 60 62 53 53 53 48 49 49 52 64 40 40 30 46 41 39 37 45 59 57
7 4 3 3 3 3 4 4 4 3 2 3 6 25 17 15 28 54 50 53 55 54 52 63 64 60 68 66 60 63 67 54 45 39 41 42 53 65 41 32 37 45 49 59 84 67 58
7 4 3 3 3 3 3 3 3 2 2 2 9 14 13 22 23 40 46 55 54 46 51 53 58 52 51 66 51 62 67 55 50 34 34 37 40 45 23 25 26 32 25 23 27 34 59
6 4 4 3 3 3 2 2 2 2 1 3 10 30 16 20 41 32 41 51 50 55 52 49 49 44 43 52 50 55 47 53 46 39 51 33 52 51 52 38 32 39 36 36 44 66 49
8 5 4 3 2 2 2 2 1 1 2 4 9 45 38 28 41 43 42 45 47 47 51 51 46 42 39 42 39 45 43 36 39 54 44 41 52 45 41 38 39 43 44 46 58 57 78
8 5 4 4 3 2 2 2 1 1 2 3 20 40 49 54 54 39 50 56 48 51 42 52 43 40 41 32 29 28 46 53 46 45 45 45 55 53 53 33 32 45 53 61 56 64 56
11 8 6 5 4 3 2 2 1 1 2 5 14 27 31 62 49 34 47 52 51 48 60 49 43 41 45 46 56 54 56 54 50 50 54 57 60 54 47 34 36 53 77 70 74 71 77
14 11 11 8 6 4 4 3 2 2 2 3 10 18 25 46 42 47 56 55 49 54 47 58 56 48 59 61 61 61 68 69 69 63 62 58 65 52 58 41 53 86 66 83 75 80 85
15 14 12 10 10 8 6 5 5 5 6 5 7 10 24 51 52 59 58 62 63 64 60 56 64 66 68 70 43 38 37 39 44 48 61 59 66 58 63 45 31 71 64 74 82 73 78
13 16 18 13 12 9 10 9 10 15 15 9 10 18 26 60 54 58 61 60 50 54 56 63 66 70 72 54 50 47 42 43 47 40 49 60 67 79 51 64 58 71 57 52 59 80 67
22 26 13 16 15 14 13 13 16 21 21 12 13 17 27 69 73 58 52 56 75 73 53 70 71 73 74 55 51 52 51 61 53 52 42 46 60 71 50 54 42 76 60 51 87 73 69
37 18 15 16 20 18 18 25 26 25 25 16 17 13 17 63 77 68 64 74 80 74 48 70 67 69 63 57 56 60 61 50 58 51 66 69 65 56 67 74 66 79 50 64 74 75 74
30 20 16 23 18 18 22 21 24 33 23 20 19 20 24 40 80 78 76 72 70 67 72 81 79 83 83 70 69 62 55 50 60 67 64 70 77 78 74 66 81 72 61 90 84 83 84
Wind_Speed
3 3 4 5 6 7 7 8 8 9 10 11 12 12 13 13 13 13 13 13 13 13 12 10 9 6 2 2 2 4 5 2 2 2 1 1 1 1 2 1 2 5 2 4 5 6 7
4 5 5 6 7 8 8 9 9 10 11 12 13 13 13 14 14 14 14 14 14 14 13 11 8 5 1 2 2 3 4 2 2 2 1 0 2 2 3 2 3 2 5 8 8 12 9
6 6 7 8 9 9 9 10 10 11 12 13 13 13 14 14 13 13 13 13 13 13 13 11 7 3 2 3 3 3 3 2 1 1 2 1 1 1 3 2 1 2 6 7 12 7 6
5 7 7 7 9 10 11 12 12 12 12 12 12 12 13 13 14 14 14 13 13 13 11 7 3 2 4 3 3 3 2 2 1 1 1 0 0 2 0 1 1 3 3 5 4 7 1
3 5 8 9 9 10 10 10 12 12 12 12 12 13 14 14 14 14 14 13 13 11 7 3 2 4 3 4 3 1 1 1 2 1 1 1 0 2 2 3 4 3 6 6 4 7 4
4 4 5 9 10 11 11 12 11 10 11 12 13 13 14 15 15 14 13 12 9 5 3 4 5 4 3 1 1 1 2 1 1 2 1 1 1 3 3 5 6 4 5 5 8 2 6
6 6 6 6 9 10 11 10 11 12 11 12 13 14 15 15 15 13 11 7 4 2 7 5 3 2 1 1 1 1 1 0 1 0 2 2 4 7 3 5 3 4 7 11 13 7 6
7 8 6 8 8 9 9 10 10 10 11 12 13 14 14 14 13 10 9 2 3 1 2 7 5 5 3 2 1 0 2 2 2 2 1 3 6 2 1 2 5 6 8 13 11 8 7
6 8 8 8 9 9 8 8 8 9 11 12 12 13 14 13 11 9 7 5 3 3 2 4 5 4 3 1 0 2 1 0 1 3 3 5 2 6 3 5 7 9 12 12 11 5 9
7 6 7 8 7 7 6 7 8 9 10 11 12 12 12 12 5 8 4 5 3 3 2 4 3 3 4 2 1 2 1 1 1 3 3 7 1 5 4 6 8 14 10 12 7 5 8
8 8 8 7 5 4 6 7 7 8 9 11 11 12 11 9 6 5 5 4 3 2 1 2 2 2 5 3 4 3 1 1 3 2 2 3 3 5 9 9 10 5 3 4 5 10 10
9 8 8 7 6 4 4 6 7 9 10 11 12 11 10 9 6 6 3 2 1 1 2 1 3 5 3 4 4 4 1 1 1 3 5 13 4 5 7 4 9 2 3 3 3 6 8
9 9 8 7 4 5 5 5 7 9 10 11 11 10 9 9 6 4 2 0 1 2 1 2 2 4 4 4 3 6 4 7 5 6 2 5 8 3 3 6 2 6 7 4 6 6 9
10 8 8 6 5 4 4 5 7 9 10 11 10 9 7 8 5 3 0 2 3 1 1 1 2 5 2 7 3 5 1 2 11 6 5 5 3 1 2 2 5 6 5 7 12 14 17
11 10 8 6 5 5 5 5 7 9 10 10 10 7 5 6 4 1 1 1 1 1 1 4 3 1 2 1 4 2 5 4 7 10 4 6 6 3 4 5 4 1 7 8 13 19 16
11 9 8 6 5 5 5 6 7 9 9 9 8 6 3 3 1 1 1 2 2 2 3 1 2 3 1 5 5 5 2 3 4 8 5 4 10 1 6 7 4 5 10 9 8 16 24
10 9 8 7 6 6 6 8 8 8 9 8 5 2 3 2 1 2 1 3 3 3 3 4 0 0 2 2 2 2 3 4 6 7 5 7 3 7 12 4 11 14 14 14 13 8 13
10 9 7 7 6 6 7 8 8 8 7 4 4 2 3 0 1 3 2 3 2 4 8 4 3 3 1 2 2 2 0 3 7 8 5 4 5 8 21 17 8 7 7 10 5 8 9
9 8 7 6 6 7 7 8 8 8 6 4 3 2 2 5 2 3 4 4 5 3 5 3 3 6 2 1 3 1 2 7 8 10 6 5 2 8 13 4 2 8 23 16 15 14 21
9 8 7 6 5 6 8 7 7 6 5 3 2 1 4 6 5 4 5 3 4 5 4 5 4 3 2 2 2 1 1 2 10 8 2 3 2 7 10 16 18 19 19 18 15 11 18
8 7 6 5 5 6 7 7 6 6 3 3 2 2 3 2 4 6 3 3 4 3 3 4 4 5 2 2 2 2 2 4 6 2 3 4 4 4 13 14 16 16 16 12 11 12 10
8 6 3 2 3 5 6 7 6 4 3 4 3 5 6 5 3 4 2 2 4 4 1 2 3 2 2 2 2 3 2 2 4 1 2 2 3 7 11 10 12 13 7 7 7 10 8
9 6 4 3 1 1 3 5 5 3 4 4 6 9 6 2 3 2 2 4 4 6 4 5 2 1 3 2 5 10 12 14 13 6 3 2 2 5 7 10 15 6 7 5 2 6 8
11 8 5 4 4 3 4 6 4 3 2 2 8 8 4 3 2 2 6 4 6 4 4 3 3 0 1 10 14 9 6 8 10 12 13 4 5 4 7 8 7 6 8 4 7 2 8
11 9 7 6 5 6 7 8 9 8 9 5 8 6 5 4 8 8 8 7 5 4 3 3 2 3 7 5 3 3 2 4 3 3 8 13 3 4 4 7 12 7 5 6 6 5 9
12 11 8 7 6 7 8 8 10 10 12 8 12 9 7 12 3 8 6 4 3 3 3 2 1 5 3 2 1 2 2 1 2 2 2 6 6 5 9 10 11 5 11 16 7 7 16
13 11 9 7 7 8 8 8 9 9 11 10 15 10 7 9 6 8 3 4 4 4 3 2 3 1 4 1 1 1 2 2 3 3 3 4 3 8 8 9 6 7 18 17 5 8 27
15 12 10 8 8 9 8 8 9 9 10 8 15 12 6 7 10 7 6 5 6 3 2 1 2 2 1 0 1 1 3 1 4 3 4 3 4 4 2 5 6 14 5 6 8 19 24
15 12 10 9 9 9 8 8 8 9 10 10 12 10 9 7 9 8 8 8 7 4 3 2 2 1 2 1 1 2 3 3 4 3 2 2 2 3 3 4 4 10 11 1 14 21 22
Wind_Direction
359 21 18 13 8 3 2 353 352 346 343 340 340 338 335 331 329 329 326 323 324 325 327 328 325 321 338 109 138 179 196 219 298 321 336 9 136 160 268 184 186 236 242 233 226 216 236
355 358 359 360 358 354 351 344 345 340 337 335 333 334 331 329 327 327 325 323 322 323 324 323 319 314 237 178 178 188 204 226 261 284 294 7 178 184 144 201 231 210 262 258 255 243 241
1 348 352 351 350 346 342 341 341 339 337 336 335 336 334 331 327 326 325 326 325 324 324 321 316 308 142 160 176 177 188 216 245 283 280 206 191 190 157 187 256 296 294 258 229 230 243
350 338 344 346 343 342 342 343 340 338 338 336 335 336 336 334 333 329 320 319 318 319 322 319 315 139 119 136 165 195 208 254 298 320 291 252 173 152 155 152 217 250 251 269 141 175 175
334 323 331 334 339 337 340 341 339 339 340 338 338 339 339 337 339 334 326 320 318 320 328 16 71 117 76 95 101 131 190 274 299 314 317 300 166 127 154 231 242 216 265 244 281 194 158
283 309 338 337 334 335 338 339 339 343 342 340 339 340 339 339 337 332 328 325 326 347 36 70 69 118 107 121 66 331 282 241 277 314 332 62 112 212 184 213 265 274 251 243 264 151 218
320 327 327 331 333 331 334 337 343 342 345 343 341 343 342 339 337 338 342 339 349 21 38 45 12 83 137 236 99 346 198 261 312 73 251 48 248 240 279 251 309 287 278 275 274 267 269
304 306 313 324 326 329 332 336 340 343 343 345 346 344 341 340 336 344 349 10 51 58 74 51 61 62 71 120 132 119 161 204 171 170 180 217 250 298 147 155 218 236 267 271 280 280 240
289 303 315 322 326 332 334 333 337 344 342 345 347 346 344 339 335 350 15 46 50 46 92 38 42 38 24 60 133 34 147 195 263 194 208 244 109 140 215 220 234 242 248 274 276 312 242
272 278 302 312 319 322 323 335 342 342 342 344 345 343 344 342 344 343 3 15 29 51 152 20 13 14 1 352 39 356 154 353 278 308 294 271 98 216 214 249 222 276 232 256 260 282 279
276 298 303 302 305 312 323 332 337 342 342 341 340 337 341 348 335 341 337 353 18 98 317 24 15 333 339 17 333 20 343 342 282 294 252 287 229 221 236 242 200 271 159 227 247 259 289
275 284 293 303 303 310 324 332 336 336 336 336 333 335 341 346 342 342 335 359 23 211 236 83 325 359 6 34 18 324 81 358 298 268 238 262 291 247 248 275 224 107 232 245 238 253 250
280 286 295 301 294 306 321 327 330 332 330 330 328 329 338 346 334 338 352 22 262 199 37 21 338 357 352 328 0 14 36 44 18 330 298 301 247 263 233 268 211 223 239 255 237 212 253
276 281 284 274 268 279 297 316 324 325 324 325 324 326 331 335 330 332 33 232 225 161 211 20 320 314 327 6 58 353 48 79 36 358 299 317 298 346 102 335 337 226 253 257 267 274 283
273 281 281 268 262 272 289 310 316 318 321 322 320 311 305 331 340 2 116 231 358 164 9 323 287 236 137 89 352 11 60 38 32 13 329 326 250 345 9 332 303 122 243 321 281 272 268
264 273 273 267 268 278 296 308 317 315 318 317 307 292 283 329 353 34 115 126 132 44 338 266 289 8 288 358 335 350 118 13 3 16 340 27 290 172 358 337 187 348 332 286 256 272 267
264 271 270 269 280 292 302 309 315 316 313 310 291 248 319 344 97 64 150 110 123 71 23 357 326 276 68 6 312 298 63 52 11 6 26 349 244 261 327 321 325 318 305 293 297 273 279
253 258 258 264 279 296 303 305 313 311 305 295 268 231 320 287 36 46 93 63 37 18 30 47 80 67 63 32 292 231 155 63 35 9 353 8 300 291 298 308 325 296 67 25 346 318 307
245 250 249 260 276 289 299 307 310 307 306 293 215 215 344 169 190 122 119 89 63 47 38 39 80 37 42 100 291 9 97 164 14 358 355 357 242 303 298 138 91 349 313 312 305 273 267
236 237 249 259 276 294 299 303 308 304 297 266 169 198 48 75 76 124 143 135 121 47 77 71 102 83 90 122 20 304 288 110 333 331 106 337 283 269 283 292 299 301 310 308 301 289 291
219 225 235 257 274 291 304 312 315 307 278 230 132 111 117 97 58 100 91 113 139 145 87 74 101 86 94 188 260 204 201 317 330 65 69 11 275 311 285 292 296 300 307 337 349 334 291
209 213 213 232 279 296 320 326 326 308 244 206 158 144 98 88 100 111 29 129 155 130 125 109 127 130 167 199 243 268 243 234 256 117 321 319 262 318 301 304 314 318 2 346 5 352 334
187 180 166 152 131 20 356 342 339 323 237 198 145 139 123 102 120 151 135 145 127 142 83 101 142 171 195 190 262 272 265 261 251 255 251 234 260 310 275 322 314 220 8 349 356 21 329
170 158 144 126 107 87 64 49 35 32 83 147 142 131 118 113 110 109 134 112 125 85 112 118 126 20 26 305 300 280 247 246 236 234 223 219 216 263 288 296 297 88 43 334 332 84 16
165 157 154 141 117 92 77 64 66 67 73 71 117 126 120 108 124 115 125 116 109 74 97 126 99 336 322 321 296 305 180 186 159 182 197 215 250 295 271 303 288 191 43 342 343 275 15
164 160 145 124 112 93 86 80 74 67 68 69 87 95 102 119 166 136 124 147 141 115 117 118 41 340 5 281 274 276 266 345 257 227 152 188 247 269 296 287 288 53 336 318 299 248 5
166 155 147 129 114 108 101 90 79 72 72 68 81 80 92 101 133 134 130 132 125 118 110 113 355 38 12 329 232 266 264 323 262 260 278 282 245 253 278 291 284 6 331 314 262 324 338
165 160 149 142 125 110 108 97 86 78 78 75 77 68 90 109 135 126 120 123 127 123 91 88 174 83 73 286 337 20 267 270 270 305 311 284 294 273 277 285 276 8 346 348 336 320 321
159 157 151 138 130 120 114 98 86 82 79 73 80 72 103 108 127 125 123 119 116 103 101 100 97 107 59 18 184 300 270 273 291 268 68 231 349 320 294 337 347 335 304 236 330 317 316